Weather in Utar-Aty

Russia / Republic of Tatarstan     56°09′07″N   49°39′37″E
temp.,
°C
wind,
m/s
gust,
m/s
humid.,
%
clouds,
%
prec.,
mm/h
press.,
hPa
HPBL,
m
13 june, sun
sun1300:00+13ese379835 0.0 1012151
03:00+12se339840 0.0 101258
06:00+16s348822 0.0 1012216
09:00+21s567247 0.0 1013761
12:00+23s67625 0.0 10121322
15:00+24s78585 0.1 10121571
18:00+22s5107324 0.3 1012569
21:00+17sse479117 0.9 1013120
14 june, mon
mon1400:00+16s41094100 0.2 1013209
03:00+14s4893100 0.2 1014164
06:00+17s478598 0.0 1015221
09:00+21ssw4675100 0.0 1015648
12:00+24ssw5761100 0.0 10151538
15:00+24ssw6768100 0.4 10151035
18:00+22ssw368196 0.8 1015367
21:00+19sw358974 4.9 101679
15 june, tue
tue1500:00+17sw2290100 0.0 101514
03:00+16ssw118836 0.0 101511
06:00+20se118088 0.0 1015109
09:00+23se2268100 0.0 1015644
12:00+26s2357100 0.2 10141397
15:00+21sse2383100 1.7 1013128
18:00+22sw228289 1.1 101367
21:00+19s338855 3.8 101346
16 june, wed
wed1600:00+17s3393100 0.1 101236
03:00+17sse229399 1.2 101234
06:00+20sse378699 0.0 1012233
09:00+23sse4768100 0.0 1012373
12:00+26se595776 0.0 1010808
15:00+27sse565999 0.0 1009765
18:00+24se3573100 0.3 1008130
21:00+20s228687 0.3 100822
17 june, thu
thu1700:00+19nw22885 0.1 100819
03:00+16nnw599839 0.1 1009235
06:00+17n7129198 0.3 1010587
09:00+19nne811705 0.3 1013913
12:00+21n9105638 0.0 10151347
15:00+21n810540 0.0 10161612
18:00+19n611580 0.0 1018610
21:00+15n513680 0.0 1020315